| time (UTC) | temp F | wind direction | speed MPH | gust MPH | rain 1hr in | rain 24hr in | rain mn in | humidity % | barometer mb |
| 20260505205515 | 76 | 288 | 4.0 | 11.0 | 0.00 | 0.00 | 0.00 | 40 | 1008.5 |
| 20260505204503 | 76 | 18 | 2.0 | 8.0 | 0.00 | 0.00 | 0.00 | 44 | 1008.4 |
| 20260505203449 | 75 | 355 | 2.0 | 6.0 | 0.00 | 0.00 | 0.00 | 41 | 1008.6 |
| 20260505202452 | 75 | 13 | 1.0 | 5.0 | 0.00 | 0.00 | 0.00 | 42 | 1008.6 |
| 20260505201429 | 75 | 330 | 3.0 | 9.0 | 0.00 | 0.00 | 0.00 | 40 | 1008.6 |
| 20260505200449 | 74 | 84 | 3.0 | 9.0 | 0.00 | 0.00 | 0.00 | 42 | 1008.8 |
| 20260505195431 | 74 | 335 | 2.0 | 6.0 | 0.00 | 0.00 | 0.00 | 44 | 1008.6 |
| 20260505194456 | 73 | 313 | 2.0 | 9.0 | 0.00 | 0.00 | 0.00 | 44 | 1008.6 |
| 20260505193443 | 73 | 40 | 1.0 | 9.0 | 0.00 | 0.00 | 0.00 | 45 | 1008.6 |
| 20260505192500 | 71 | 172 | 2.0 | 7.0 | 0.00 | 0.00 | 0.00 | 53 | 1008.9 |
| 20260505191506 | 71 | 311 | 1.0 | 6.0 | 0.00 | 0.00 | 0.00 | 50 | 1008.9 |
| 20260505190454 | 70 | 300 | 3.0 | 6.0 | 0.00 | 0.00 | 0.00 | 54 | 1009.1 |
| 20260505185440 | 70 | 281 | 2.0 | 6.0 | 0.00 | 0.00 | 0.00 | 52 | 1009.1 |
| 20260505184425 | 70 | 251 | 2.0 | 6.0 | 0.00 | 0.00 | 0.00 | 53 | 1009.1 |
| 20260505183450 | 69 | 302 | 2.0 | 9.0 | 0.00 | 0.00 | 0.00 | 51 | 1009.2 |
| 20260505182443 | 68 | 261 | 2.0 | 9.0 | 0.00 | 0.00 | 0.00 | 56 | 1009.2 |
| 20260505181442 | 67 | 273 | 3.0 | 8.0 | 0.00 | 0.00 | 0.00 | 57 | 1009.3 |
| 20260505180431 | 67 | 298 | 3.0 | 8.0 | 0.00 | 0.00 | 0.00 | 59 | 1009.3 |
| 20260505175357 | 67 | 303 | 3.0 | 6.0 | 0.00 | 0.00 | 0.00 | 57 | 1008.8 |
| 20260505174357 | 67 | 17 | 1.0 | 8.0 | 0.00 | 0.00 | 0.00 | 56 | 1008.8 |
| 20260505173352 | 66 | 298 | 2.0 | 8.0 | 0.00 | 0.00 | 0.00 | 61 | 1008.9 |
| 20260505170041 | 64 | 279 | 3.0 | 8.0 | 0.00 | 0.00 | 0.00 | 60 | 1008.9 |
| 20260505165043 | 64 | 343 | 3.0 | 7.0 | 0.00 | 0.00 | 0.00 | 61 | 1008.5 |
| 20260505164016 | 64 | 256 | 3.0 | 6.0 | 0.00 | 0.00 | 0.00 | 62 | 1008.5 |
| 20260505162957 | 63 | 257 | 2.0 | 6.0 | 0.00 | 0.00 | 0.00 | 64 | 1008.6 |
| 20260505162020 | 63 | 286 | 2.0 | 6.0 | 0.00 | 0.00 | 0.00 | 64 | 1008.7 |
| 20260505152632 | 59 | 261 | 4.0 | 7.0 | 0.00 | 0.00 | 0.00 | 72 | 1008.5 |
| 20260505151606 | 59 | 214 | 5.0 | 9.0 | 0.00 | 0.00 | 0.00 | 75 | 1008.4 |
| 20260505150546 | 58 | 246 | 5.0 | 9.0 | 0.00 | 0.00 | 0.00 | 79 | 1008.6 |
| 20260505140318 | 50 | 215 | 2.0 | 4.0 | 0.00 | 0.00 | 0.00 | 90 | 1008.3 |
| 20260505123710 | 51 | 202 | 2.0 | 3.0 | 0.00 | 0.00 | 0.00 | 88 | 1006.8 |
| 20260505121533 | 52 | 200 | 2.0 | 3.0 | 0.00 | 0.00 | 0.00 | 87 | 1006.6 |
| 20260505120539 | 53 | 201 | 2.0 | 3.0 | 0.00 | 0.00 | 0.00 | 86 | 1006.3 |
| 20260505114421 | 54 | 212 | 0.0 | 2.0 | 0.00 | 0.00 | 0.00 | 86 | 1006.0 |
| 20260505113445 | 54 | 227 | 2.0 | 3.0 | 0.00 | 0.00 | 0.00 | 86 | 1006.0 |
| 20260505112506 | 54 | 200 | 1.0 | 3.0 | 0.00 | 0.00 | 0.00 | 85 | 1006.1 |
| 20260505111446 | 54 | 200 | 2.0 | 4.0 | 0.00 | 0.00 | 0.00 | 85 | 1006.1 |
| 20260505110449 | 54 | 211 | 2.0 | 4.0 | 0.00 | 0.00 | 0.00 | 85 | 1006.0 |
| 20260505101239 | 53 | 200 | 4.0 | 5.0 | 0.00 | 0.00 | 0.00 | 85 | 1005.6 |
| 20260505100303 | 52 | 190 | 4.0 | 7.0 | 0.00 | 0.00 | 0.00 | 86 | 1005.6 |
| 20260505095301 | 52 | 205 | 4.0 | 7.0 | 0.00 | 0.00 | 0.00 | 86 | 1005.7 |
| 20260505094325 | 51 | 207 | 2.0 | 4.0 | 0.00 | 0.00 | 0.00 | 87 | 1005.7 |
| 20260505093305 | 51 | 219 | 2.0 | 3.0 | 0.00 | 0.00 | 0.00 | 85 | 1005.6 |
| 20260505092239 | 51 | 196 | 2.0 | 4.0 | 0.00 | 0.00 | 0.00 | 85 | 1005.8 |
| 20260505091229 | 50 | 193 | 2.0 | 4.0 | 0.00 | 0.00 | 0.00 | 85 | 1005.8 |
| 20260505090204 | 51 | 218 | 2.0 | 4.0 | 0.00 | 0.00 | 0.00 | 84 | 1005.6 |
| 20260505085216 | 51 | 183 | 2.0 | 3.0 | 0.00 | 0.00 | 0.00 | 83 | 1005.6 |
| 20260505084157 | 51 | 197 | 3.0 | 4.0 | 0.00 | 0.00 | 0.00 | 81 | 1005.6 |
| 20260505083141 | 52 | 192 | 2.0 | 4.0 | 0.00 | 0.00 | 0.00 | 79 | 1005.7 |
| 20260505082129 | 54 | 220 | 2.0 | 4.0 | 0.00 | 0.00 | 0.00 | 77 | 1005.5 |
| 20260505081148 | 54 | 171 | 1.0 | 4.0 | 0.00 | 0.00 | 0.00 | 76 | 1005.6 |
| 20260505080116 | 55 | 209 | 1.0 | 3.0 | 0.00 | 0.00 | 0.00 | 76 | 1005.3 |
| 20260505075107 | 56 | 222 | 1.0 | 5.0 | 0.00 | 0.00 | 0.00 | 74 | 1005.3 |
| 20260505074103 | 56 | 186 | 1.0 | 5.0 | 0.00 | 0.00 | 0.00 | 73 | 1005.3 |
| 20260505071953 | 57 | 290 | 2.0 | 4.0 | 0.00 | 0.00 | 0.00 | 71 | 1004.9 |
| 20260505071005 | 56 | 257 | 0.0 | 3.0 | 0.00 | 0.00 | 0.00 | 72 | 1005.0 |
| 20260505070024 | 56 | 248 | 1.0 | 5.0 | 0.00 | 0.00 | 0.00 | 72 | 1005.0 |
| 20260505065027 | 58 | 270 | 3.0 | 5.0 | 0.00 | 0.00 | 0.00 | 67 | 1004.8 |
| 20260505062903 | 61 | 276 | 0.0 | 3.0 | 0.00 | 0.00 | 0.00 | 61 | 1004.7 |
| 20260505061831 | 61 | 269 | 0.0 | 2.0 | 0.00 | 0.00 | 0.00 | 62 | 1004.7 |
| 20260505060830 | 60 | 144 | 0.0 | 4.0 | 0.00 | 0.00 | 0.00 | 64 | 1004.8 |
| 20260505052451 | 63 | 292 | 7.0 | 11.0 | 0.00 | 0.00 | 0.00 | 58 | 1004.2 |
| 20260505051506 | 63 | 271 | 6.0 | 11.0 | 0.00 | 0.00 | 0.00 | 58 | 1004.1 |
| 20260505040257 | 65 | 306 | 8.0 | 16.0 | 0.00 | 0.00 | 0.00 | 53 | 1003.6 |
| 20260505035230 | 67 | 306 | 11.0 | 16.0 | 0.00 | 0.00 | 0.00 | 50 | 1003.9 |
| 20260505034210 | 67 | 316 | 10.0 | 14.0 | 0.00 | 0.00 | 0.00 | 51 | 1003.8 |
| 20260505033209 | 66 | 295 | 8.0 | 12.0 | 0.00 | 0.00 | 0.00 | 51 | 1003.7 |
| 20260505032211 | 67 | 309 | 9.0 | 12.0 | 0.00 | 0.00 | 0.00 | 49 | 1003.7 |
| 20260505030041 | 69 | 310 | 9.0 | 15.0 | 0.00 | 0.00 | 0.00 | 47 | 1003.4 |
| 20260505025055 | 70 | 316 | 10.0 | 13.0 | 0.00 | 0.00 | 0.00 | 45 | 1003.4 |
| 20260505024051 | 70 | 297 | 9.0 | 14.0 | 0.00 | 0.00 | 0.00 | 45 | 1003.2 |
| 20260505023051 | 71 | 306 | 8.0 | 14.0 | 0.00 | 0.00 | 0.00 | 43 | 1003.3 |
| 20260505022023 | 72 | 306 | 9.0 | 14.0 | 0.00 | 0.00 | 0.00 | 44 | 1003.1 |
| 20260505021041 | 72 | 315 | 9.0 | 16.0 | 0.00 | 0.00 | 0.00 | 44 | 1003.1 |
| 20260505020040 | 73 | 321 | 10.0 | 16.0 | 0.00 | 0.00 | 0.00 | 43 | 1003.1 |
| 20260505015056 | 74 | 306 | 10.0 | 14.0 | 0.00 | 0.00 | 0.00 | 42 | 1003.6 |
| 20260505014104 | 74 | 315 | 10.0 | 17.0 | 0.00 | 0.00 | 0.00 | 43 | 1003.7 |
| 20260505013118 | 75 | 311 | 11.0 | 17.0 | 0.00 | 0.00 | 0.00 | 41 | 1003.4 |
| 20260505012053 | 75 | 322 | 10.0 | 16.0 | 0.00 | 0.00 | 0.00 | 40 | 1003.5 |
| 20260505011021 | 76 | 328 | 10.0 | 14.0 | 0.00 | 0.00 | 0.00 | 40 | 1003.5 |
| 20260505010012 | 77 | 330 | 8.0 | 12.0 | 0.00 | 0.00 | 0.00 | 38 | 1003.8 |
| 20260505004947 | 77 | 332 | 7.0 | 12.0 | 0.00 | 0.00 | 0.00 | 37 | 1003.9 |
| 20260505003914 | 78 | 328 | 6.0 | 13.0 | 0.00 | 0.00 | 0.00 | 33 | 1003.9 |
| 20260505002929 | 78 | 326 | 7.0 | 13.0 | 0.00 | 0.00 | 0.00 | 29 | 1004.0 |
| 20260505001933 | 78 | 296 | 6.0 | 13.0 | 0.00 | 0.00 | 0.00 | 30 | 1004.0 |
| 20260505000911 | 78 | 290 | 8.0 | 13.0 | 0.00 | 0.00 | 0.00 | 31 | 1004.0 |
| 20260504235933 | 78 | 268 | 7.0 | 13.0 | 0.00 | 0.00 | 0.00 | 33 | 1003.9 |
| 20260504234921 | 78 | 297 | 8.0 | 13.0 | 0.00 | 0.00 | 0.00 | 34 | 1003.9 |
| 20260504233852 | 79 | 329 | 5.0 | 12.0 | 0.00 | 0.00 | 0.00 | 31 | 1003.6 |
| 20260504232905 | 80 | 335 | 6.0 | 14.0 | 0.00 | 0.00 | 0.00 | 32 | 1003.7 |
| 20260504230755 | 79 | 323 | 5.0 | 13.0 | 0.00 | 0.00 | 0.00 | 34 | 1004.1 |
| 20260504224651 | 79 | 13 | 3.0 | 12.0 | 0.00 | 0.00 | 0.00 | 31 | 1004.1 |
| 20260504223640 | 80 | 34 | 4.0 | 11.0 | 0.00 | 0.00 | 0.00 | 29 | 1004.2 |
| 20260504220420 | 79 | 295 | 3.0 | 9.0 | 0.00 | 0.00 | 0.00 | 31 | 1004.5 |
| 20260504215415 | 79 | 306 | 3.0 | 9.0 | 0.00 | 0.00 | 0.00 | 30 | 1004.5 |
| 20260504214430 | 79 | 325 | 2.0 | 9.0 | 0.00 | 0.00 | 0.00 | 35 | 1004.5 |
| 20260504213359 | 78 | 313 | 4.0 | 10.0 | 0.00 | 0.00 | 0.00 | 32 | 1004.8 |
| 20260504212404 | 78 | 326 | 6.0 | 10.0 | 0.00 | 0.00 | 0.00 | 32 | 1004.9 |